Weather History for Vidalia, GA

Change the Weather History Date:

Saturday, May 4, 2013

  Actual Average (KAZE) Record (KAZE)
Temperature  
Mean Temperature 63 °F -  
Max Temperature 69 °F 84 °F 86 °F (2014)
Min Temperature 57 °F 55 °F 55 °F (2013)
Degree Days  
Heating Degree Days 2    
Growing Degree Days 13 (Base 50)    
Moisture  
Dew Point 59 °F    
Average Humidity 85    
Maximum Humidity 100    
Minimum Humidity 77    
Precipitation  
Precipitation 0.00 in - - ()
Sea Level Pressure  
Sea Level Pressure 29.87 in    
Wind  
Wind Speed 14 mph (East)    
Max Wind Speed 20 mph    
Max Gust Speed 30 mph    
Visibility 9 miles    
Events Rain , Thunderstorm    
Averages and records for this station are not official NWS values.
T = Trace of Precipitation, MM = Missing Value Source: NWS Daily Summary

Daily Weather History Graph

Daily Weather History Graph

Search for Another Location

Airport:

Trip Planner

Search our weather history database for the weather conditions in past years. The results will help you decide how hot, cold, wet, or windy it might be!

Date:

Astronomy

May. 04, 2013 Rise Set
Actual Time 6:40 AM EDT 8:12 PM EDT
Civil Twilight 6:14 AM EDT 8:38 PM EDT
Nautical Twilight 5:42 AM EDT 9:10 PM EDT
Astronomical Twilight 5:09 AM EDT 9:43 PM EDT
Moon 3:19 AM EDT (5/4) 3:25 PM EDT (5/4)
Length of Visible Light 14h 24m
Length of Day
13h 32m
Waning Crescent, 27% of the Moon is Illuminated
May 4
Waning Crescent
May 9
New
May 18
First Quarter
May 25
Full
May 31
Last Quarter

Hourly Weather History & Observations

Time (EDT) Temp. Dew Point Humidity Pressure Visibility Wind Dir Wind Speed Gust Speed Precip Events Conditions
12:15 AM 62.6 °F 59.0 °F 88% 29.95 in 10.0 mi East 16.1 mph 20.7 mph N/A   Overcast
12:35 AM 62.6 °F 59.0 °F 88% 29.95 in 10.0 mi ENE 16.1 mph 23.0 mph N/A   Overcast
12:55 AM 62.6 °F 59.0 °F 88% 29.95 in 10.0 mi ENE 18.4 mph 23.0 mph N/A   Overcast
1:15 AM 62.6 °F 57.2 °F 82% 29.94 in 10.0 mi ENE 12.7 mph 21.9 mph N/A   Overcast
1:35 AM 62.6 °F 57.2 °F 82% 29.94 in 10.0 mi East 11.5 mph - N/A   Overcast
1:55 AM 62.6 °F 57.2 °F 82% 29.93 in 10.0 mi ENE 17.3 mph 21.9 mph N/A   Overcast
2:15 AM 62.6 °F 55.4 °F 77% 29.93 in 10.0 mi ENE 15.0 mph - N/A   Overcast
2:35 AM 62.6 °F 55.4 °F 77% 29.91 in 10.0 mi ENE 13.8 mph 21.9 mph N/A   Overcast
2:55 AM 60.8 °F 55.4 °F 82% 29.91 in 10.0 mi ENE 16.1 mph 20.7 mph N/A   Overcast
3:15 AM 60.8 °F 55.4 °F 82% 29.90 in 10.0 mi ENE 12.7 mph 20.7 mph N/A   Overcast
3:35 AM 60.8 °F 55.4 °F 82% 29.90 in 10.0 mi ENE 11.5 mph 17.3 mph N/A   Overcast
3:55 AM 60.8 °F 55.4 °F 82% 29.90 in 10.0 mi ENE 10.4 mph 19.6 mph N/A   Overcast
4:15 AM 60.8 °F 55.4 °F 82% 29.89 in 10.0 mi ENE 15.0 mph - N/A   Overcast
4:35 AM 60.8 °F 55.4 °F 82% 29.89 in 10.0 mi ENE 13.8 mph 18.4 mph N/A   Overcast
4:55 AM 60.8 °F 55.4 °F 82% 29.90 in 10.0 mi ENE 12.7 mph - N/A   Overcast
5:15 AM 60.8 °F 53.6 °F 77% 29.91 in 10.0 mi ENE 13.8 mph 19.6 mph N/A   Overcast
5:35 AM 59.0 °F 55.4 °F 88% 29.91 in 5.0 mi ENE 12.7 mph 23.0 mph N/A Rain Light Rain
5:55 AM 57.2 °F 55.4 °F 94% 29.91 in 5.0 mi ENE 11.5 mph 17.3 mph N/A   Overcast
6:15 AM 57.2 °F 55.4 °F 94% 29.91 in 10.0 mi ENE 9.2 mph 19.6 mph N/A   Overcast
6:35 AM 59.0 °F 55.4 °F 88% 29.91 in 10.0 mi NE 12.7 mph 18.4 mph N/A   Overcast
6:55 AM 59.0 °F 55.4 °F 88% 29.91 in 7.0 mi ENE 15.0 mph 25.3 mph N/A   Overcast
7:15 AM 59.0 °F 55.4 °F 88% 29.92 in 7.0 mi NE 12.7 mph 19.6 mph N/A   Overcast
7:35 AM 59.0 °F 55.4 °F 88% 29.92 in 5.0 mi ENE 12.7 mph 19.6 mph N/A Rain Rain
7:55 AM 59.0 °F 57.2 °F 94% 29.92 in 5.0 mi ENE 13.8 mph 19.6 mph N/A Rain Rain
8:15 AM 59.0 °F 57.2 °F 94% 29.91 in 5.0 mi ENE 15.0 mph 20.7 mph N/A Rain Rain
8:35 AM 59.0 °F 57.2 °F 94% 29.91 in 5.0 mi ENE 13.8 mph - N/A Rain Light Rain
8:55 AM 59.0 °F 57.2 °F 94% 29.91 in 5.0 mi ENE 11.5 mph - N/A   Overcast
9:15 AM 59.0 °F 59.0 °F 100% 29.91 in 7.0 mi ENE 12.7 mph 16.1 mph N/A   Overcast
9:35 AM 60.8 °F 59.0 °F 94% 29.91 in 10.0 mi ENE 13.8 mph - N/A   Overcast
9:55 AM 60.8 °F 59.0 °F 94% 29.91 in 10.0 mi ENE 11.5 mph - N/A   Overcast
10:15 AM 62.6 °F 59.0 °F 88% 29.91 in 10.0 mi ENE 15.0 mph 20.7 mph N/A   Overcast
10:35 AM 62.6 °F 59.0 °F 88% 29.91 in 10.0 mi East 16.1 mph 21.9 mph N/A   Overcast
10:55 AM 64.4 °F 59.0 °F 83% 29.91 in 10.0 mi East 19.6 mph 25.3 mph N/A   Overcast
11:35 AM 64.4 °F 60.8 °F 88% 29.91 in 7.0 mi East 15.0 mph 27.6 mph N/A   Overcast
11:55 AM 64.4 °F 60.8 °F 88% 29.90 in 10.0 mi East 15.0 mph 25.3 mph N/A   Overcast
12:15 PM 64.4 °F 60.8 °F 88% 29.89 in 10.0 mi East 15.0 mph 26.5 mph N/A   Overcast
12:35 PM 64.4 °F 60.8 °F 88% 29.89 in 10.0 mi East 17.3 mph 20.7 mph N/A   Overcast
12:55 PM 64.4 °F 60.8 °F 88% 29.88 in 7.0 mi East 16.1 mph 24.2 mph N/A   Overcast
1:15 PM 66.2 °F 60.8 °F 83% 29.87 in 10.0 mi East 13.8 mph 21.9 mph N/A   Overcast
1:35 PM 66.2 °F 60.8 °F 83% 29.87 in 10.0 mi East 12.7 mph 23.0 mph N/A   Overcast
1:55 PM 66.2 °F 60.8 °F 83% 29.87 in 7.0 mi East 16.1 mph 25.3 mph N/A   Overcast
2:15 PM 66.2 °F 60.8 °F 83% 29.86 in 7.0 mi East 17.3 mph 21.9 mph N/A   Overcast
2:35 PM 66.2 °F 60.8 °F 83% 29.86 in 10.0 mi East 16.1 mph 25.3 mph N/A   Overcast
2:55 PM 68.0 °F 62.6 °F 83% 29.85 in 10.0 mi East 15.0 mph 26.5 mph N/A   Overcast
3:15 PM 68.0 °F 62.6 °F 83% 29.84 in 10.0 mi East 13.8 mph 24.2 mph N/A   Overcast
3:35 PM 69.8 °F 62.6 °F 78% 29.84 in 10.0 mi East 13.8 mph 21.9 mph N/A   Overcast
3:55 PM 68.0 °F 62.6 °F 83% 29.83 in 10.0 mi East 17.3 mph 23.0 mph N/A   Overcast
4:35 PM 68.0 °F 62.6 °F 83% 29.83 in 4.0 mi ESE 11.5 mph 17.3 mph N/A   Drizzle
4:55 PM 66.2 °F 62.6 °F 88% 29.82 in 4.0 mi East 10.4 mph - N/A Rain Light Rain
5:15 PM 68.0 °F 62.6 °F 83% 29.82 in 10.0 mi ESE 11.5 mph 20.7 mph N/A   Overcast
5:35 PM 68.0 °F 62.6 °F 83% 29.82 in 10.0 mi ESE 13.8 mph 25.3 mph N/A Rain Light Rain
5:55 PM 68.0 °F 62.6 °F 83% 29.82 in 10.0 mi ESE 17.3 mph 26.5 mph N/A   Overcast
6:35 PM 66.2 °F 60.8 °F 83% 29.82 in 10.0 mi ESE 15.0 mph 20.7 mph N/A   Overcast
6:55 PM 68.0 °F 60.8 °F 78% 29.81 in 10.0 mi ESE 11.5 mph 23.0 mph N/A   Overcast
7:15 PM 68.0 °F 60.8 °F 78% 29.81 in 10.0 mi ESE 12.7 mph 19.6 mph N/A   Overcast
7:35 PM 68.0 °F 60.8 °F 78% 29.81 in 10.0 mi ESE 10.4 mph 17.3 mph N/A   Overcast
7:55 PM 68.0 °F 60.8 °F 78% 29.81 in 10.0 mi ESE 11.5 mph 20.7 mph N/A   Overcast
8:15 PM 68.0 °F 60.8 °F 78% 29.81 in 10.0 mi ESE 11.5 mph 20.7 mph N/A   Overcast
8:35 PM 68.0 °F 60.8 °F 78% 29.80 in 10.0 mi ESE 16.1 mph 21.9 mph N/A   Overcast
8:55 PM 68.0 °F 60.8 °F 78% 29.81 in 10.0 mi ESE 12.7 mph 18.4 mph N/A   Overcast
9:15 PM 66.2 °F 60.8 °F 83% 29.82 in 10.0 mi ESE 10.4 mph - N/A Rain Light Rain
9:35 PM 66.2 °F 60.8 °F 83% 29.81 in 10.0 mi East 13.8 mph 20.7 mph N/A   Overcast
9:55 PM 68.0 °F 60.8 °F 78% 29.82 in 10.0 mi ESE 13.8 mph - N/A   Overcast
10:15 PM 68.0 °F 60.8 °F 78% 29.82 in 10.0 mi ESE 13.8 mph 21.9 mph N/A   Overcast
10:35 PM 68.0 °F 62.6 °F 83% 29.82 in 10.0 mi ESE 12.7 mph 20.7 mph N/A   Overcast
10:55 PM 68.0 °F 62.6 °F 83% 29.81 in 10.0 mi East 16.1 mph 25.3 mph N/A Rain Light Rain
11:15 PM 68.0 °F 60.8 °F 78% 29.81 in 10.0 mi ESE 18.4 mph 29.9 mph N/A   Overcast
11:55 PM 64.4 °F 60.8 °F 88% 29.80 in 10.0 mi ESE 12.7 mph 23.0 mph N/A Rain , Thunderstorm Light Thunderstorms and Rain